Regional Weather Roundup
Issued by NWS Raleigh/Durham, NC

Home | Current Version | Previous Version | Text Only | Print | Product List | Glossary On
Versions: 1 2 3 4 5 6 7 8 9 10 11 12 13 14 15 16 17 18 19 20 21 22 23 24 25 26 27 28 29 30 31 32 33 34 35 36 37 38 39 40 41 42 43 44 45 46 47 48 49 50
000
ASUS42 KRAH 281910
RWRRAH
NORTH CAROLINA WEATHER ROUNDUP
NATIONAL WEATHER SERVICE RALEIGH NC
300 PM EDT TUE JUL 28 2015

NOTE: "FAIR" INDICATES FEW OR NO CLOUDS BELOW 12,000 FEET WITH NO
SIGNIFICANT WEATHER AND/OR OBSTRUCTIONS TO VISIBILITY.

NCZ001-053-055-056-065-067-282000-
WESTERN NORTH CAROLINA

CITY           SKY/WX    TMP DP  RH WIND       PRES   REMARKS
ASHEVILLE      MOSUNNY   87  69  54 VRB3      30.05F
JEFFERSON      PTSUNNY   80  65  61 SE3       30.12F
MORGANTON      PTSUNNY   87  70  56 W9        30.04F
HICKORY        CLOUDY    89  70  53 S6        29.99F
RUTHERFORDTON  MOSUNNY   90  73  56 SW7       29.99F HX  98
MOUNT AIRY     PTSUNNY   92  73  54 SE6       30.02S HX 101
BOONE          PTSUNNY   78  68  72 SE6       30.12F
$$

NCZ021-022-025-041-071-084-088-282000-
CENTRAL NORTH CAROLINA

CITY           SKY/WX    TMP DP  RH WIND       PRES   REMARKS
CHARLOTTE      PTSUNNY   87  70  56 SE17      29.98F
GREENSBORO     LGT RAIN  85  71  63 SW10      29.99F
WINSTON-SALEM  MOSUNNY   87  74  64 SE9       30.00F HX  95
RALEIGH-DURHAM PTSUNNY   90  72  55 S10G18    29.98F HX  97
FORT BRAGG     MOSUNNY   91  69  47 SE7       29.96F HX  95
FAYETTEVILLE   MOSUNNY   92  68  45 SE12      29.97F HX  96
BURLINGTON     LGT RAIN  84  74  71 E6        29.98F
LAURINBURG     MOSUNNY   95  63  34 VRB7      29.97F HX  96
$$

NCZ011-015-027-028-043-044-047-080-103-282000-
NORTHEASTERN NORTH CAROLINA

CITY           SKY/WX    TMP DP  RH WIND       PRES   REMARKS
ROCKY MT-WILSO MOSUNNY   90  71  53 VRB7      29.99F HX  96
GREENVILLE     SUNNY     90  70  51 S8        30.00F HX  95
WASHINGTON     SUNNY     87  69  54 E6        30.00F
ELIZABETH CITY SUNNY     87  69  54 SE8       30.00F
MANTEO         SUNNY     83  71  65 S10       30.01F
CAPE HATTERAS  SUNNY     88  70  55 SE7       30.01F
$$

NCZ078-087-090-091-093-098-101-282000-
SOUTHEASTERN NORTH CAROLINA

CITY           SKY/WX    TMP DP  RH WIND       PRES   REMARKS
LUMBERTON      SUNNY     94  67  41 MISG      29.96F HX  97
GOLDSBORO      MOSUNNY   89  71  54 SE5       29.97F HX  95
KINSTON        MOSUNNY   90  66  45 SE5       30.00F
KENANSVILLE    MOSUNNY   87  68  51 SE3       30.00F
NEW BERN       SUNNY     89  66  46 SE12      30.00F
CHERRY POINT   MOSUNNY   88  70  55 E9        30.00F
BEAUFORT       SUNNY     85  72  65 SE9       30.00F
JACKSONVILLE   SUNNY     87  69  54 SE10      29.98F
WILMINGTON     MOSUNNY   86  70  58 E9G16     29.99F
$$



USA.gov is the U.S. government's official web portal to all federal, state and local government web resources and services.